Regional Weather Roundup
Issued by NWS

Current Version | Previous Version | Text Only | Print | Product List | Glossary On
Versions: 1 2 3 4 5 6 7 8 9 10 11 12 13 14 15 16 17 18 19 20 21 22 23 24 25 26 27 28 29 30 31 32 33 34 35 36 37 38 39 40 41 42 43 44 45 46 47 48 49 50
000
ASUS43 KDTX 291210
RWRMI
MICHIGAN HOURLY REGIONAL WEATHER ROUNDUP
NATIONAL WEATHER SERVICE DETROIT/PONTIAC MI
800 AM EDT SAT APR 29 2017

NOTE: "FAIR" INDICATES FEW OR NO CLOUDS BELOW 12,000 FEET WITH NO
SIGNIFICANT WEATHER AND/OR OBSTRUCTION TO VISIBILITY.

MIZ047>049-052>055-059>063-066>070-074>076-081>083-291300-
SOUTHEAST LOWER MICHIGAN

CITY           SKY/WX    TMP DP  RH WIND       PRES   REMARKS
ADRIAN         CLOUDY    52  49  89 N13       30.09R
6HR MIN TEMP:  52; 6HR MAX TEMP:  54;

ALMA           CLOUDY    44  34  69 N7        30.18R
ANN ARBOR      CLOUDY    50  44  80 N15       30.11R
BAD AXE        CLOUDY    40  32  74 N8        30.17R WCI  34
6HR MIN TEMP:  39; 6HR MAX TEMP:  40;

CARO           CLOUDY    42  34  74 NE3       30.16R
DETROIT CITY   CLOUDY    44  34  67 N10       30.13R
6HR MIN TEMP:  43; 6HR MAX TEMP:  56; 6HR PCP: TRACE;

DETROIT        CLOUDY    46  37  71 NE14      30.13R
6HR MIN TEMP:  46; 6HR MAX TEMP:  56; 6HR PCP:  0.04;

FLINT          CLOUDY    45  36  70 NE10      30.16R
6HR MIN TEMP:  43; 6HR MAX TEMP:  56;

GROSSE ILE     CLOUDY    46  38  74 NE12G18   30.10R
6HR MIN TEMP:  45; 6HR MAX TEMP:  55; 6HR PCP:  0.01;

HILLSDALE      CLOUDY    46  41  81 N8        30.10R
HOWELL         CLOUDY    44  35  71 N7        30.13R
6HR MIN TEMP:  44; 6HR MAX TEMP:  54;


CITY           SKY/WX    TMP DP  RH WIND       PRES   REMARKS
JACKSON        CLOUDY    47  38  71 N9        30.13R
6HR MIN TEMP:  46; 6HR MAX TEMP:  53;

LAMBERTVILLE   CLOUDY    54  53  97 N3        30.06S FOG
6HR MIN TEMP:  53; 6HR MAX TEMP:  54;

LANSING        CLOUDY    46  37  71 N10       30.15R
6HR MIN TEMP:  45; 6HR MAX TEMP:  55;

LAPEER         CLOUDY    43  33  69 NE3       30.16R
6HR MIN TEMP:  42; 6HR MAX TEMP:  57;

MASON          CLOUDY    45  39  82 N14       30.14R
MONROE         CLOUDY    47  42  81 NE10      30.08R
6HR MIN TEMP:  47; 6HR MAX TEMP:  55;

MT. CLEMENS    CLOUDY    43  34  69 N13       30.11R
6HR MIN TEMP:  42; 6HR MAX TEMP:  55;

PONTIAC        CLOUDY    44  36  73 NE9       30.11R
6HR MIN TEMP:  42; 6HR MAX TEMP:  54;

PORT HOPE        N/A     41  34  76 N7        30.15R
6HR MIN TEMP:  40; 6HR MAX TEMP:  42;

PORT HURON     CLOUDY    41  30  65 N13G21    30.15R
TRI CITIES     CLOUDY    44  38  79 N12       30.18R
6HR MIN TEMP:  44; 6HR MAX TEMP:  46;

MIDLAND        CLOUDY    44  32  63 N8        30.18R
6HR MIN TEMP:  42; 6HR MAX TEMP:  47;

TROY           CLOUDY    44  32  62 N7        30.14R
SAGINAW HB     CLOUDY    45  34  65 NE9       30.17R
$$
MIZ043>046-050>051-056>058-064>065-071>073-077>080-291300-
SOUTHWEST LOWER MICHIGAN

CITY           SKY/WX    TMP DP  RH WIND       PRES   REMARKS
BATTLE CREEK   CLOUDY    47  41  80 NE14      30.14R
6HR MIN TEMP:  47; 6HR MAX TEMP:  54;

BENTON HARBOR  CLOUDY    47  40  76 NE7       30.13R
6HR MIN TEMP:  47; 6HR MAX TEMP:  51;

BIG RAPIDS     MOSUNNY   40  31  72 N8        30.17R WCI  34
6HR MIN TEMP:  39; 6HR MAX TEMP:  43;

COLDWATER      CLOUDY    49  43  80 NE12G18   30.10R
6HR MIN TEMP:  49; 6HR MAX TEMP:  53;

FREMONT        FAIR      42  33  70 NE5       30.18R
HOLLAND        CLOUDY    46  38  73 NE7       30.17R
6HR MIN TEMP:  45; 6HR MAX TEMP:  49; 6HR PCP:  0.01;

GRAND RAPIDS   CLOUDY    45  38  76 NE13      30.16R
6HR MIN TEMP:  44; 6HR MAX TEMP:  51; 6HR PCP:  0.01;

IONIA          CLOUDY    44  35  70 NE12      30.16R
6HR MIN TEMP:  44; 6HR MAX TEMP:  52;

KALAMAZOO      CLOUDY    48  39  71 NE10      30.14R
6HR MIN TEMP:  48; 6HR MAX TEMP:  55;

LUDINGTON      CLOUDY    37  31  77 NE8G20    30.20R WCI  31
6HR MIN TEMP:  37; 6HR MAX TEMP:  42;

MARSHALL       CLOUDY    47  40  78 N7        30.13R
6HR MIN TEMP:  47; 6HR MAX TEMP:  53;

MOUNT PLEASANT CLOUDY    42  34  72 N8        30.18R
6HR MIN TEMP:  42; 6HR MAX TEMP:  46;

MUSKEGON       CLOUDY    46  35  65 N7        30.19R
6HR MIN TEMP:  45; 6HR MAX TEMP:  47;

SOUTH HAVEN    CLOUDY    46  40  80 NE6       30.14R
$$
MIZ016>042-291300-
NORTHERN LOWER MICHIGAN

CITY           SKY/WX    TMP DP  RH WIND       PRES   REMARKS
ALPENA         SUNNY     38  26  62 NW12      30.21R WCI  30
6HR MIN TEMP:  37; 6HR MAX TEMP:  40;

BEAVER ISLAND  CLOUDY    37  29  73 NW5       30.24F WCI  33
BELLAIRE       CLOUDY    36  27  68 N5        30.24S WCI  32
6HR MIN TEMP:  34; 6HR MAX TEMP:  40;

CADILLAC       CLOUDY    34  28  80 N8G18     30.17R WCI  27
CHARLEVOIX     MOSUNNY   37  29  72 NW9       30.26S WCI  31
6HR MIN TEMP:  33; 6HR MAX TEMP:  39;

FRANKFORT      CLOUDY    38  27  64 NE7       30.22R WCI  33
GAYLORD        SUNNY     35  22  58 VRB6      30.19R WCI  30
6HR MIN TEMP:  34; 6HR MAX TEMP:  39;

GRAYLING       SUNNY     35  27  73 NW12G18   30.19S WCI  27
6HR MIN TEMP:  32; 6HR MAX TEMP:  39;

HARBOR SPRINGS CLOUDY    35  27  73 CALM      30.23R
HOUGHTON LAKE  CLOUDY    38  29  70 N10       30.17R WCI  31
6HR MIN TEMP:  37; 6HR MAX TEMP:  41; 6HR PCP: TRACE;

MANISTEE       MOSUNNY   37  27  67 NE8       30.21R WCI  31
OSCODA         SUNNY     41  33  74 N8        30.17R
6HR MIN TEMP:  37; 6HR MAX TEMP:  43;

PELLSTON         N/A    N/A N/A N/A MISG      30.23
ROGERS CITY    MOSUNNY   37  26  62 NW8       30.22R WCI  31
TRAVERSE CITY  CLOUDY    38  27  64 VRB6      30.22R WCI  33
6HR MIN TEMP:  37; 6HR MAX TEMP:  43;

$$
MIZ007>008-015-291300-
EASTERN UPPER MICHIGAN

CITY           SKY/WX    TMP DP  RH WIND       PRES   REMARKS
MACKINAC ISLAN CLOUDY    36  28  71 NW10G18   30.22F WCI  29
6HR MIN TEMP:  34; 6HR MAX TEMP:  37;

NEWBERRY       CLOUDY    33  26  75 N5        30.25R WCI  29
6HR MIN TEMP:  32; 6HR MAX TEMP:  34;

S. S. MARIE    CLOUDY    37  25  61 NW12      30.23R WCI  29
6HR MIN TEMP:  35; 6HR MAX TEMP:  37;

MUNISING         N/A     37  28  70 NE12      30.27R WCI  29
6HR MIN TEMP:  36; 6HR MAX TEMP:  37;

$$
MIZ004>006-011>014-085-291300-
CENTRAL UPPER MICHIGAN

CITY           SKY/WX    TMP DP  RH WIND       PRES   REMARKS
MANISTIQUE     CLOUDY    32  31  95 NW3       30.24F
6HR MIN TEMP:  27; 6HR MAX TEMP:  34;

ESCANABA       SUNNY     34  28  79 NW6       30.25F WCI  29
6HR MIN TEMP:  27; 6HR MAX TEMP:  35;

MENOMINEE      SUNNY     33  27  78 N6        30.28R WCI  28
6HR MIN TEMP:  30; 6HR MAX TEMP:  38;

SAWYER-GWINN   MOSUNNY   32  25  74 N15G28    30.26R WCI  22
$$
MIZ001>003-009>011-084-291300-
WESTERN UPPER MICHIGAN

CITY           SKY/WX    TMP DP  RH WIND       PRES   REMARKS
IRON MOUNTAIN  MOSUNNY   30  25  81 N7        30.25R WCI  23
6HR MIN TEMP:  26; 6HR MAX TEMP:  31;

HOUGHTON       SUNNY     33  22  63 CALM      30.24R
6HR MIN TEMP:  28; 6HR MAX TEMP:  34;

COPPER HARBOR    N/A     37  27  67 N10       30.24R WCI  30
6HR MIN TEMP:  36; 6HR MAX TEMP:  37;

IRONWOOD       CLOUDY    27  26  96 CALM      30.25R
6HR MIN TEMP:  22; 6HR MAX TEMP:  27;

$$

ABBREVIATIONS USED IN REMARKS
   TC - TEMPERATURE IN CELSIUS
  WCI - WIND CHILL INDEX
   HX - HEAT INDEX
  VSB - VISIBILITY





USA.gov is the U.S. government's official web portal to all federal, state and local government web resources and services.